TimeCST,TemperatureF,Dew PointF,Humidity,Sea Level PressureIn,VisibilityMPH,Wind Direction,Wind SpeedMPH,Gust SpeedMPH,PrecipitationIn,Events,Conditions,WindDirDegrees,DateUTC
12:53 AM,-2.0,-7.1,79,30.19,7.0,Calm,Calm,-,N/A,,Clear,0,2012-12-30 06:53:00
1:53 AM,-2.9,-9.0,75,30.19,6.0,SSW,4.6,-,N/A,,Haze,210,2012-12-30 07:53:00
2:53 AM,-0.9,-7.1,75,30.19,7.0,Calm,Calm,-,N/A,,Clear,0,2012-12-30 08:53:00
3:53 AM,-2.9,-9.0,75,30.21,7.0,South,3.5,-,N/A,,Clear,190,2012-12-30 09:53:00
4:53 AM,-2.9,-9.0,75,30.19,7.0,Calm,Calm,-,N/A,,Partly Cloudy,0,2012-12-30 10:53:00
5:53 AM,-0.0,-7.1,72,30.19,7.0,Calm,Calm,-,N/A,,Clear,0,2012-12-30 11:53:00
6:53 AM,-2.9,-9.0,75,30.18,7.0,SE,3.5,-,N/A,,Partly Cloudy,140,2012-12-30 12:53:00
7:11 AM,-2.2,-7.6,78,30.07,6.0,Calm,Calm,-,N/A,,Haze,0,2012-12-30 13:11:00
7:42 AM,-2.2,-7.6,78,30.07,6.0,Calm,Calm,-,N/A,,Haze,0,2012-12-30 13:42:00
7:53 AM,-0.9,-7.1,75,30.17,6.0,Calm,Calm,-,N/A,,Haze,0,2012-12-30 13:53:00
8:53 AM,-0.0,-6.0,76,30.17,4.0,SSW,4.6,-,N/A,,Haze,200,2012-12-30 14:53:00
9:53 AM,6.1,1.0,80,30.15,4.0,South,5.8,-,N/A,,Haze,180,2012-12-30 15:53:00
10:53 AM,10.9,5.0,77,30.12,6.0,South,12.7,-,N/A,,Haze,180,2012-12-30 16:53:00
11:53 AM,14.0,7.0,74,30.07,7.0,South,9.2,-,N/A,,Clear,180,2012-12-30 17:53:00
12:53 PM,19.0,9.0,65,30.02,8.0,SSE,5.8,-,N/A,,Clear,160,2012-12-30 18:53:00
1:53 PM,19.9,10.0,65,29.98,8.0,South,12.7,-,N/A,,Clear,180,2012-12-30 19:53:00
2:53 PM,19.0,10.0,68,29.96,8.0,South,10.4,-,N/A,,Clear,180,2012-12-30 20:53:00
3:53 PM,18.0,9.0,68,29.94,7.0,SSW,9.2,-,N/A,,Clear,200,2012-12-30 21:53:00
4:39 PM,15.8,8.6,73,29.87,1.8,SSW,4.6,-,N/A,,Haze,210,2012-12-30 22:39:00
4:50 PM,15.8,8.6,73,29.87,7.0,South,4.6,-,N/A,,Clear,190,2012-12-30 22:50:00
4:53 PM,15.1,7.0,70,29.96,7.0,South,4.6,-,N/A,,Clear,190,2012-12-30 22:53:00
5:53 PM,14.0,7.0,74,29.96,7.0,SSW,4.6,-,N/A,,Clear,210,2012-12-30 23:53:00
6:53 PM,10.0,3.9,76,29.97,6.0,WSW,3.5,-,N/A,,Haze,250,2012-12-31 00:53:00
7:53 PM,10.9,5.0,77,29.96,6.0,SW,3.5,-,N/A,,Haze,230,2012-12-31 01:53:00
8:35 PM,8.6,3.2,79,29.88,5.0,Calm,Calm,-,N/A,,Haze,0,2012-12-31 02:35:00
8:53 PM,10.0,6.1,84,29.97,5.0,SW,4.6,-,N/A,,Overcast,230,2012-12-31 02:53:00
9:08 PM,12.2,6.8,79,29.88,6.0,WSW,3.5,-,N/A,,Haze,240,2012-12-31 03:08:00
9:25 PM,10.4,5.0,79,29.88,6.0,West,4.6,-,N/A,,Haze,270,2012-12-31 03:25:00
9:53 PM,14.0,8.1,77,29.99,7.0,WNW,10.4,-,N/A,,Partly Cloudy,300,2012-12-31 03:53:00
10:07 PM,15.8,8.6,73,29.91,7.0,NW,9.2,-,N/A,,Mostly Cloudy,310,2012-12-31 04:07:00
10:53 PM,18.0,10.9,74,30.00,9.0,NW,13.8,20.7,N/A,,Overcast,320,2012-12-31 04:53:00
11:46 PM,17.6,8.6,68,29.95,9.0,NW,15.0,27.6,N/A,,Overcast,320,2012-12-31 05:46:00
11:53 PM,17.1,8.1,68,30.03,9.0,NNW,17.3,23.0,N/A,,Overcast,340,2012-12-31 05:53:00